Home > Weather > Norfolk > Past weeks

Flag for Canada Past Weather in Norfolk, Ontario, Canada — Yesterday and Last 2 Weeks

Now
63 °F

Mild.


Feels Like: 63 °F
Forecast: 68 / 85 °F
Wind: No wind

Location: Delhi Cs Ont

Current Time: Aug 28, 2016 at 6:51:03 AM

Latest Report: Aug 28, 2016 at 6:00 AM


Visibility: N/A

Pressure: 30.12 "Hg

Humidity: 89%

Dew Point: 60 °F

Location of NorfolkLocation

Past Weather in Norfolk — Graph

°F

Norfolk Temperature Yesterday

Maximum temperature yesterday: 84 °F (at 4:00 PM)
Minimum temperature yesterday: 59 °F (at 7:00 AM)
Average temperature yesterday: 71 °F

High & Low Weather Summary for the Past Weeks

 TemperatureHumidityPressure
High85 °F (Aug 20, 5:00 PM)100% (Aug 17, 4:00 AM)30.27 "Hg (Aug 17, 4:00 AM)
Low50 °F (Aug 23, 7:00 AM)35% (Aug 27, 4:00 PM)29.59 "Hg (Aug 21, 1:00 AM)
Average72 °F78%30.00 "Hg
* Reported Aug 13 5:00 AM — Aug 28 5:00 AM, Norfolk, Weather by CustomWeather, © 2016

Note: Actual official high and low records may vary slightly from our data, if they occured in-between our weather recording intervals... More about our weather records

Advertising

Norfolk Weather History for the Previous 24 Hours

Scroll right to see more
 ConditionsComfort  
Time TempWeatherWind HumidityBarometerVisibility
5:00 AM
Sun, Aug 28
64 °FMild.1 mph94%30.11 "HgN/A
4:00 AM64 °FMild.1 mph95%30.09 "HgN/A
3:00 AM65 °FMild.1 mph92%30.09 "HgN/A
2:00 AM66 °FMild.1 mph90%30.09 "HgN/A
1:00 AM67 °FMild.No wind90%30.10 "HgN/A
12:00 AM70 °FMild.3 mph76%30.11 "HgN/A
11:00 PM
Sat, Aug 27
71 °FMild.1 mph68%30.11 "HgN/A
10:00 PM73 °FMild.2 mph68%30.11 "HgN/A
9:00 PM73 °FMild.1 mph70%30.12 "HgN/A
8:00 PM75 °FMild.3 mph67%30.11 "HgN/A
7:00 PM76 °FMild.1 mph69%30.13 "HgN/A
6:00 PM80 °FWarm.1 mph47%30.13 "HgN/A
5:00 PM83 °FPleasantly warm.3 mph36%30.13 "HgN/A
4:00 PM84 °FPleasantly warm.5 mph35%30.11 "HgN/A
3:00 PM82 °FWarm.6 mph41%30.13 "HgN/A
2:00 PM80 °FWarm.6 mph53%30.14 "HgN/A
1:00 PM78 °FWarm.7 mph54%30.16 "HgN/A
12:00 PM79 °FWarm.5 mph56%30.16 "HgN/A
11:00 AM76 °FMild.7 mph64%30.17 "HgN/A
10:00 AM73 °FMild.3 mph71%30.18 "HgN/A
9:00 AM67 °FMild.2 mph82%30.19 "HgN/A
8:00 AM64 °FMild.No wind96%30.19 "HgN/A
7:00 AM59 °FCool.No wind91%30.19 "HgN/A
6:00 AM60 °FCool.No wind97%30.18 "HgN/A
Weather by CustomWeather, © 2016

See weather overviewHow to use our weather pages